Weather History for Ft Lauderdale, FL

Change the Weather History Date:

Friday, November 16, 2012

  Actual Average Record
Temperature  
Mean Temperature 72 °F 75 °F  
Max Temperature 79 °F 82 °F 89 °F (1951)
Min Temperature 65 °F 69 °F 48 °F (1969)
Degree Days  
Heating Degree Days 0 0  
Month to date heating degree days 2 0  
Since 1 July heating degree days 2 0  
Cooling Degree Days 7 10  
Month to date cooling degree days 124 186  
Year to date cooling degree days 4281 4380  
Growing Degree Days 21 (Base 50)    
Moisture  
Dew Point 65 °F    
Average Humidity 78    
Maximum Humidity 93    
Minimum Humidity 62    
Precipitation  
Precipitation 0.17 in 0.09 in 2.78 in (1994)
Month to date precipitation 0.37 2.01  
Year to date precipitation 59.66 58.49  
Snow  
Snow 0.00 in - - ()
Month to date snowfall 0.0  
Since 1 July snowfall 0.0  
Since 1 September snowfall 0.0  
Snow Depth 0.00 in    
Sea Level Pressure  
Sea Level Pressure 30.06 in    
Wind  
Wind Speed 7 mph (North)    
Max Wind Speed 16 mph    
Max Gust Speed 20 mph    
Visibility 9 miles    
Events Rain    
T = Trace of Precipitation, MM = Missing Value Source: NWS Daily Summary

Daily Weather History Graph

Daily Weather History Graph

Search for Another Location

Airport:

Trip Planner

Search our weather history database for the weather conditions in past years. The results will help you decide how hot, cold, wet, or windy it might be!

Date:

Astronomy

Nov. 16, 2012 Rise Set
Actual Time 6:40 AM EST 5:30 PM EST
Civil Twilight 6:15 AM EST 5:55 PM EST
Nautical Twilight 5:47 AM EST 6:23 PM EST
Astronomical Twilight 5:20 AM EST 6:50 PM EST
Moon 9:28 AM EST (11/16) 8:31 PM EST (11/16)
Length of Visible Light 11h 39m
Length of Day
10h 50m
Waxing Crescent, 11% of the Moon is Illuminated
Nov 16
Waxing Crescent
Nov 20
First Quarter
Nov 28
Full
Dec 6
Last Quarter
Dec 13
New

Hourly Weather History & Observations

Time (EST) Temp. Dew Point Humidity Pressure Visibility Wind Dir Wind Speed Gust Speed Precip Events Conditions
12:53 AM 69.1 °F 64.0 °F 84% 30.06 in 10.0 mi NNW 9.2 mph - N/A   Mostly Cloudy
1:53 AM 68.0 °F 64.0 °F 87% 30.05 in 10.0 mi NNW 10.4 mph - N/A   Mostly Cloudy
2:53 AM 68.0 °F 64.0 °F 87% 30.06 in 10.0 mi North 11.5 mph - N/A   Overcast
3:53 AM 66.9 °F 63.0 °F 87% 30.05 in 10.0 mi NNW 9.2 mph - N/A   Overcast
4:29 AM 66.2 °F 62.6 °F 88% 30.05 in 10.0 mi NNW 8.1 mph - N/A   Overcast
4:53 AM 66.9 °F 63.0 °F 87% 30.05 in 10.0 mi NW 5.8 mph - N/A   Overcast
5:53 AM 66.0 °F 63.0 °F 90% 30.07 in 10.0 mi NNW 8.1 mph - N/A   Mostly Cloudy
6:27 AM 66.2 °F 62.6 °F 88% 30.08 in 7.0 mi NNW 9.2 mph - N/A   Overcast
6:53 AM 64.9 °F 63.0 °F 93% 30.07 in 7.0 mi North 8.1 mph - N/A   Overcast
7:53 AM 66.0 °F 63.0 °F 90% 30.09 in 7.0 mi North 8.1 mph - N/A   Overcast
8:53 AM 69.1 °F 64.0 °F 84% 30.10 in 10.0 mi North 6.9 mph - N/A   Partly Cloudy
9:53 AM 71.1 °F 64.0 °F 78% 30.11 in 10.0 mi NNW 9.2 mph - N/A   Overcast
10:53 AM 72.0 °F 64.0 °F 76% 30.09 in 10.0 mi NNW 8.1 mph - N/A   Overcast
11:53 AM 75.0 °F 64.9 °F 71% 30.07 in 10.0 mi NW 8.1 mph - N/A   Overcast
12:53 PM 77.0 °F 64.0 °F 64% 30.04 in 10.0 mi ENE 3.5 mph - N/A   Mostly Cloudy
1:53 PM 78.1 °F 64.0 °F 62% 30.04 in 10.0 mi East 6.9 mph - N/A   Mostly Cloudy
2:53 PM 77.0 °F 66.0 °F 69% 30.03 in 10.0 mi ENE 10.4 mph - N/A   Mostly Cloudy
3:53 PM 77.0 °F 64.9 °F 66% 30.02 in 10.0 mi ENE 8.1 mph - N/A   Mostly Cloudy
4:53 PM 75.0 °F 64.0 °F 69% 30.03 in 10.0 mi ENE 6.9 mph - N/A   Mostly Cloudy
5:53 PM 75.0 °F 64.9 °F 71% 30.03 in 10.0 mi NNE 8.1 mph - N/A   Mostly Cloudy
6:53 PM 73.9 °F 66.0 °F 76% 30.05 in 10.0 mi North 6.9 mph - 0.00 in Rain Light Rain
7:53 PM 72.0 °F 69.1 °F 91% 30.06 in 9.0 mi Calm Calm - 0.02 in Rain Light Rain
8:13 PM 71.6 °F 66.2 °F 83% 30.06 in 6.0 mi East 15.0 mph - 0.03 in Rain Rain
8:16 PM 71.6 °F 66.2 °F 83% 30.06 in 6.0 mi East 13.8 mph - 0.03 in Rain Light Rain
8:53 PM 71.1 °F 66.0 °F 84% 30.07 in 10.0 mi SE 3.5 mph - 0.08 in   Mostly Cloudy
9:53 PM 70.0 °F 66.9 °F 90% 30.08 in 10.0 mi NNW 4.6 mph - N/A   Mostly Cloudy
10:53 PM 70.0 °F 66.0 °F 87% 30.06 in 10.0 mi NE 6.9 mph - 0.07 in   Mostly Cloudy
11:53 PM 68.0 °F 66.0 °F 93% 30.04 in 10.0 mi NNW 4.6 mph - N/A   Partly Cloudy